Location: Brabourne
(51.1333°N, 1.0000°E)
Time: 06:59:43
(UTC+00:00)

USA 229 - Pass Details

Date: 20 June 2021
Orbit: 956 x 1256 km, 63.5° (Epoch: 25 July)

Event Time Altitude Azimuth Distance (km) Brightness Sun altitude
Exits shadow 02:09:57 - 248° (WSW) 3,242 5.8 -9.9°
Reaches altitude 10° 02:11:17 10° 251° (WSW) 2,778 5.4 -9.8°
Maximum altitude 02:17:39 52° 327° (NNW) 1,295 4.4 -9.3°
Drops below altitude 10° 02:24:31 10° 43° (NE) 2,988 7.7 -8.7°
Sets 02:27:24 0° 49° (NE) 3,996 8.5 -8.5°
